Location: Brno
(49.2000°N, 16.6330°E)
Time: 17:04:15
(UTC+02:00)

Transit 4A - Pass Details

Date: 26 July 2021
Orbit: 871 x 974 km, 66.8° (Epoch: 16 September)

Event Time Altitude Azimuth Distance (km) Brightness Sun altitude
Rises 12:06:45 0° 315° (NW) 3,476 10.6 58.3°
Reaches altitude 10° 12:09:44 10° 301° (WNW) 2,542 10.1 58.5°
Maximum altitude 12:14:07 22° 252° (WSW) 1,833 9.7 58.7°
Drops below altitude 10° 12:18:33 10° 204° (SSW) 2,569 10.7 59.0°
Sets 12:21:36 0° 190° (S) 3,523 11.3 59.2°
